Location: Chateh
(58.6667°N, 118.6000°W)
Time: 19:53:17
(UTC+00:00)

Gurwin Techsat 1B - Pass Details

Date: 10 December 2023
Orbit: 810 x 813 km, 98.9° (Epoch: 21 February)

Event Time Altitude Azimuth Distance (km) Brightness Sun altitude
Rises 13:00:14 0° 16° (NNE) 3,353 12.0 -25.5°
Reaches altitude 10° 13:02:46 10° 8° (N) 2,418 11.1 -25.1°
Enters shadow 13:05:13 24° 349° (NNW) 1,650 10.0 -24.8°
